DLH34J EDDF-LPPT

Flight info

Callsign DLH34J
Flight time 2h 49m
Altitude 37000
Route SOBRA2L/18 SOBRA Y180 DIK UN857 TOLVU DCT RAPOR DCT GIMER/N0422F350 DCT ESTOC UT300 PON UN872 GODIX/N0399F310 UN872 DIDAK/N0444F390 UN872 TERPO/N0425F350 UN872 ERIGA UZ218 FUJTI/N0446F390 DCT ATLEN DCT ABUPI DCT XAMAX
Aircraft A320/M-SDE2E3FGIJ1LORWXYZ/HB1

Departure

Time 2026-05-05 18:23
Airport Frankfurt Main Airport (EDDF)

Arrival

Time 2026-05-05 21:12
Airport Lisbon Humberto Delgado Airport (LPPT)
Time Latitude Longitude Altitude Speed Heading
2026-05-05 16:59 50.04883 8.57153 363 ft 0 kts 161°
2026-05-05 18:05 50.04868 8.57144 361 ft 1 kts 227°
2026-05-05 18:05 50.04860 8.57126 362 ft 5 kts 235°
2026-05-05 18:05 50.04826 8.57062 359 ft 7 kts 217°
2026-05-05 18:06 50.04784 8.57026 356 ft 6 kts 205°
2026-05-05 18:06 50.04772 8.57018 362 ft 6 kts 205°
2026-05-05 18:06 50.04693 8.56963 360 ft 10 kts 205°
2026-05-05 18:06 50.04623 8.56918 359 ft 11 kts 197°
2026-05-05 18:07 50.04559 8.56893 361 ft 5 kts 193°
2026-05-05 18:07 50.04520 8.56879 359 ft 8 kts 192°
2026-05-05 18:07 50.04454 8.56828 361 ft 12 kts 250°
2026-05-05 18:07 50.04420 8.56697 359 ft 15 kts 248°
2026-05-05 18:08 50.04381 8.56529 359 ft 18 kts 250°
2026-05-05 18:08 50.04334 8.56334 361 ft 21 kts 250°
2026-05-05 18:08 50.04281 8.56113 362 ft 23 kts 249°
2026-05-05 18:08 50.04222 8.55870 362 ft 25 kts 250°
2026-05-05 18:09 50.04182 8.55697 361 ft 26 kts 249°
2026-05-05 18:09 50.04117 8.55423 354 ft 28 kts 250°
2026-05-05 18:09 50.04049 8.55143 359 ft 28 kts 250°
2026-05-05 18:09 50.04002 8.54945 356 ft 18 kts 250°
2026-05-05 18:10 50.03953 8.54741 355 ft 22 kts 250°
2026-05-05 18:10 50.03897 8.54509 353 ft 24 kts 249°
2026-05-05 18:10 50.03820 8.54281 350 ft 25 kts 235°
2026-05-05 18:10 50.03774 8.54113 352 ft 12 kts 250°
2026-05-05 18:11 50.03740 8.53982 348 ft 14 kts 249°
2026-05-05 18:11 50.03704 8.53824 349 ft 16 kts 248°
2026-05-05 18:11 50.03670 8.53683 348 ft 13 kts 252°
2026-05-05 18:11 50.03636 8.53545 338 ft 15 kts 247°
2026-05-05 18:12 50.03596 8.53385 338 ft 17 kts 250°
2026-05-05 18:12 50.03554 8.53209 337 ft 15 kts 248°
2026-05-05 18:12 50.03523 8.53077 337 ft 11 kts 250°
2026-05-05 18:12 50.03515 8.53045 336 ft 0 kts 249°
2026-05-05 18:13 50.03509 8.53022 335 ft 3 kts 249°
2026-05-05 18:14 50.03503 8.52996 336 ft 2 kts 249°
2026-05-05 18:14 50.03493 8.52955 337 ft 7 kts 249°
2026-05-05 18:14 50.03476 8.52888 334 ft 6 kts 247°
2026-05-05 18:14 50.03474 8.52879 335 ft 0 kts 247°
2026-05-05 18:15 50.03471 8.52870 333 ft 2 kts 247°
2026-05-05 18:16 50.03459 8.52828 332 ft 5 kts 246°
2026-05-05 18:16 50.03453 8.52804 335 ft 0 kts 246°
2026-05-05 18:17 50.03449 8.52789 336 ft 3 kts 247°
2026-05-05 18:17 50.03440 8.52755 333 ft 3 kts 248°
2026-05-05 18:18 50.03436 8.52739 333 ft 0 kts 249°
2026-05-05 18:21 50.03428 8.52707 332 ft 5 kts 249°
2026-05-05 18:21 50.03416 8.52663 332 ft 4 kts 244°
2026-05-05 18:21 50.03383 8.52617 334 ft 9 kts 209°
2026-05-05 18:21 50.03325 8.52595 334 ft 8 kts 182°
2026-05-05 18:22 50.03300 8.52595 332 ft 0 kts 180°
2026-05-05 18:22 50.03137 8.52595 333 ft 61 kts 180°
2026-05-05 18:22 50.02473 8.52602 335 ft 127 kts 179°
2026-05-05 18:23 50.01416 8.52615 390 ft 172 kts 178°
2026-05-05 18:23 50.00206 8.52676 1001 ft 173 kts 179°
2026-05-05 18:23 49.99003 8.52721 1750 ft 173 kts 181°
2026-05-05 18:23 49.97729 8.52774 2171 ft 193 kts 180°
2026-05-05 18:24 49.96309 8.52860 2496 ft 217 kts 180°
2026-05-05 18:24 49.94747 8.52966 3187 ft 227 kts 179°
2026-05-05 18:24 49.93155 8.53079 4068 ft 229 kts 180°
2026-05-05 18:24 49.91571 8.53193 5050 ft 229 kts 180°
2026-05-05 18:25 49.89964 8.53307 5985 ft 231 kts 179°
2026-05-05 18:25 49.88893 8.53381 6562 ft 233 kts 180°
2026-05-05 18:25 49.86726 8.53126 7611 ft 240 kts 197°
2026-05-05 18:25 49.85077 8.52236 8059 ft 262 kts 202°
2026-05-05 18:26 49.83330 8.51238 8823 ft 271 kts 202°
2026-05-05 18:26 49.81550 8.50220 9723 ft 275 kts 202°
2026-05-05 18:26 49.79709 8.49173 10254 ft 293 kts 202°
2026-05-05 18:26 49.77824 8.47757 10658 ft 309 kts 219°
2026-05-05 18:27 49.76457 8.45183 11357 ft 315 kts 244°
2026-05-05 18:27 49.75983 8.41868 12135 ft 323 kts 270°
2026-05-05 18:27 49.76382 8.38420 12945 ft 328 kts 282°
2026-05-05 18:27 49.76933 8.34976 13750 ft 331 kts 282°
2026-05-05 18:28 49.78086 8.27985 15089 ft 340 kts 282°
2026-05-05 18:28 49.78672 8.24418 15745 ft 345 kts 282°
2026-05-05 18:28 49.79262 8.20793 16401 ft 349 kts 282°
2026-05-05 18:29 49.79854 8.17126 17056 ft 354 kts 281°
2026-05-05 18:29 49.80448 8.13408 17725 ft 358 kts 281°
2026-05-05 18:29 49.81047 8.09634 18343 ft 363 kts 281°
2026-05-05 18:29 49.81647 8.05824 18900 ft 367 kts 281°
2026-05-05 18:30 49.82250 8.01999 19454 ft 371 kts 281°
2026-05-05 18:30 49.82872 7.98054 20024 ft 375 kts 282°
2026-05-05 18:30 49.83495 7.94106 20576 ft 379 kts 282°
2026-05-05 18:30 49.84125 7.90125 21120 ft 383 kts 282°
2026-05-05 18:31 49.84759 7.86093 21653 ft 387 kts 282°
2026-05-05 18:31 49.85395 7.82027 22187 ft 391 kts 282°
2026-05-05 18:31 49.86035 7.77911 22703 ft 394 kts 282°
2026-05-05 18:31 49.86678 7.73771 23220 ft 398 kts 282°
2026-05-05 18:32 49.87335 7.69574 23662 ft 402 kts 282°
2026-05-05 18:32 49.87995 7.65352 23791 ft 404 kts 282°
2026-05-05 18:32 49.88654 7.61120 23826 ft 404 kts 282°
2026-05-05 18:32 49.89313 7.56866 23975 ft 407 kts 282°
2026-05-05 18:33 49.89964 7.52651 24432 ft 409 kts 282°
2026-05-05 18:33 49.90627 7.48342 24864 ft 412 kts 282°
2026-05-05 18:33 49.91291 7.43999 25274 ft 415 kts 281°
2026-05-05 18:33 49.91967 7.39562 25684 ft 419 kts 281°
2026-05-05 18:34 49.92628 7.35203 26096 ft 422 kts 281°
2026-05-05 18:34 49.93303 7.30763 26491 ft 425 kts 282°
2026-05-05 18:34 49.93984 7.26273 26894 ft 429 kts 281°
2026-05-05 18:34 49.94664 7.21758 27273 ft 432 kts 281°
2026-05-05 18:35 49.95351 7.17199 27651 ft 435 kts 281°
2026-05-05 18:35 49.96041 7.12595 28025 ft 438 kts 281°
2026-05-05 18:35 49.96732 7.07974 28402 ft 441 kts 282°
2026-05-05 18:35 49.97426 7.03321 28764 ft 444 kts 281°
2026-05-05 18:36 49.98121 6.98623 29127 ft 447 kts 281°
2026-05-05 18:36 49.98811 6.93896 29458 ft 450 kts 279°
2026-05-05 18:36 49.99202 6.89066 29776 ft 452 kts 270°
2026-05-05 18:36 49.99147 6.84176 30108 ft 453 kts 265°
2026-05-05 18:37 49.98992 6.79287 30445 ft 454 kts 265°
2026-05-05 18:37 49.98843 6.74379 30762 ft 456 kts 265°
2026-05-05 18:37 49.98698 6.69442 31062 ft 458 kts 265°
2026-05-05 18:37 49.98554 6.64491 31354 ft 460 kts 265°
2026-05-05 18:38 49.98336 6.59551 31728 ft 458 kts 259°
2026-05-05 18:38 49.97699 6.54719 32132 ft 453 kts 251°
2026-05-05 18:38 49.96624 6.50133 32555 ft 449 kts 243°
2026-05-05 18:38 49.95384 6.45750 32963 ft 448 kts 243°
2026-05-05 18:39 49.94126 6.41287 33388 ft 447 kts 243°
2026-05-05 18:39 49.92884 6.36866 33851 ft 446 kts 243°
2026-05-05 18:39 49.91649 6.32457 34191 ft 445 kts 243°
2026-05-05 18:39 49.90432 6.28116 34534 ft 444 kts 243°
2026-05-05 18:40 49.89178 6.23753 34877 ft 442 kts 242°
2026-05-05 18:40 49.87905 6.19359 35226 ft 441 kts 243°
2026-05-05 18:40 49.86660 6.15020 35573 ft 439 kts 241°
2026-05-05 18:40 49.85170 6.10933 35907 ft 434 kts 233°
2026-05-05 18:41 49.83466 6.07160 36212 ft 432 kts 232°
2026-05-05 18:41 49.81729 6.03358 36508 ft 431 kts 232°
2026-05-05 18:41 49.79992 5.99580 36762 ft 431 kts 232°
2026-05-05 18:41 49.78258 5.95819 36820 ft 428 kts 232°
2026-05-05 18:42 49.74850 5.88308 36820 ft 426 kts 237°
2026-05-05 18:42 49.72528 5.79849 36827 ft 429 kts 248°
2026-05-05 18:43 49.70524 5.71161 36828 ft 429 kts 248°
2026-05-05 18:43 49.68489 5.62488 36833 ft 429 kts 248°
2026-05-05 18:44 49.66454 5.53823 36825 ft 429 kts 248°
2026-05-05 18:44 49.64485 5.45113 36822 ft 430 kts 249°
2026-05-05 18:45 49.62641 5.36284 36816 ft 430 kts 250°
2026-05-05 18:45 49.60824 5.27562 36823 ft 430 kts 250°
2026-05-05 18:46 49.58951 5.18806 36821 ft 430 kts 249°
2026-05-05 18:46 49.57058 5.10065 36810 ft 430 kts 249°
2026-05-05 18:47 49.55150 5.01274 36817 ft 430 kts 249°
2026-05-05 18:47 49.53266 4.92591 36828 ft 430 kts 249°
2026-05-05 18:48 49.51358 4.83854 36826 ft 431 kts 249°
2026-05-05 18:48 49.49439 4.75124 36805 ft 431 kts 249°
2026-05-05 18:49 49.47513 4.66378 36803 ft 431 kts 249°
2026-05-05 18:49 49.45584 4.57651 36802 ft 431 kts 249°
2026-05-05 18:50 49.43642 4.48932 36809 ft 431 kts 249°
2026-05-05 18:50 49.41702 4.40203 36811 ft 432 kts 249°
2026-05-05 18:51 49.39762 4.31487 36804 ft 432 kts 249°
2026-05-05 18:51 49.37805 4.22775 36800 ft 432 kts 249°
2026-05-05 18:52 49.35836 4.14058 36804 ft 432 kts 249°
2026-05-05 18:52 49.33856 4.05354 36805 ft 432 kts 249°
2026-05-05 18:53 49.32216 3.98127 36806 ft 432 kts 249°
2026-05-05 18:53 49.30237 3.89431 36811 ft 432 kts 249°
2026-05-05 18:54 49.28244 3.80726 36808 ft 432 kts 249°
2026-05-05 18:54 49.26243 3.72048 36818 ft 433 kts 248°
2026-05-05 18:55 49.24239 3.63365 36820 ft 433 kts 249°
2026-05-05 18:55 49.22225 3.54691 36820 ft 433 kts 249°
2026-05-05 18:56 49.20197 3.46017 36824 ft 433 kts 248°
2026-05-05 18:56 49.18185 3.37399 36819 ft 434 kts 248°
2026-05-05 18:57 49.16149 3.28722 36824 ft 434 kts 248°
2026-05-05 18:57 49.14108 3.20050 36824 ft 434 kts 248°
2026-05-05 18:58 49.12059 3.11376 36831 ft 434 kts 248°
2026-05-05 18:58 49.10002 3.02704 36834 ft 435 kts 248°
2026-05-05 18:59 49.07930 2.94042 36833 ft 435 kts 248°
2026-05-05 18:59 49.05848 2.85375 36834 ft 435 kts 248°
2026-05-05 19:00 49.03767 2.76711 36853 ft 435 kts 248°
2026-05-05 19:00 49.01687 2.68058 36856 ft 435 kts 248°
2026-05-05 19:01 48.99591 2.59418 36867 ft 435 kts 248°
2026-05-05 19:01 48.97486 2.50776 36856 ft 435 kts 248°
2026-05-05 19:02 48.95374 2.42143 36852 ft 435 kts 248°
2026-05-05 19:02 48.93260 2.33514 36850 ft 436 kts 248°
2026-05-05 19:03 48.91139 2.24890 36850 ft 435 kts 248°
2026-05-05 19:03 48.89008 2.16268 36854 ft 435 kts 248°
2026-05-05 19:04 48.86876 2.07657 36849 ft 435 kts 248°
2026-05-05 19:04 48.84726 1.99057 36853 ft 435 kts 247°
2026-05-05 19:05 48.82574 1.90471 36847 ft 435 kts 247°
2026-05-05 19:05 48.80418 1.81886 36842 ft 435 kts 247°
2026-05-05 19:06 48.78256 1.73305 36858 ft 435 kts 247°
2026-05-05 19:06 48.76100 1.64746 36854 ft 434 kts 247°
2026-05-05 19:07 48.73931 1.56207 36856 ft 434 kts 247°
2026-05-05 19:07 48.71769 1.47735 36857 ft 434 kts 247°
2026-05-05 19:08 48.69587 1.39214 36854 ft 434 kts 247°
2026-05-05 19:08 48.67406 1.30713 36862 ft 434 kts 247°
2026-05-05 19:09 48.65217 1.22204 36865 ft 434 kts 247°
2026-05-05 19:09 48.63019 1.13698 36858 ft 434 kts 247°
2026-05-05 19:10 48.60815 1.05209 36855 ft 434 kts 246°
2026-05-05 19:10 48.58604 0.96731 36874 ft 434 kts 246°
2026-05-05 19:11 48.56385 0.88254 36863 ft 434 kts 247°
2026-05-05 19:11 48.54165 0.79797 36870 ft 434 kts 247°
2026-05-05 19:12 48.51930 0.71328 36868 ft 434 kts 246°
2026-05-05 19:12 48.49693 0.62887 36871 ft 434 kts 246°
2026-05-05 19:13 48.47454 0.54452 36871 ft 434 kts 246°
2026-05-05 19:13 48.45216 0.46004 36873 ft 434 kts 247°
2026-05-05 19:14 48.42965 0.37575 36882 ft 434 kts 246°
2026-05-05 19:14 48.40708 0.29164 36885 ft 434 kts 246°
2026-05-05 19:15 48.38435 0.20745 36886 ft 434 kts 245°
2026-05-05 19:15 48.36161 0.12345 36893 ft 434 kts 245°
2026-05-05 19:16 48.33898 0.03997 36896 ft 434 kts 246°
2026-05-05 19:16 48.31616 -0.04404 36900 ft 434 kts 246°
2026-05-05 19:17 48.29325 -0.12802 36899 ft 434 kts 246°
2026-05-05 19:17 48.27023 -0.21185 36900 ft 435 kts 246°
2026-05-05 19:18 48.23983 -0.28936 36901 ft 431 kts 231°
2026-05-05 19:18 48.20304 -0.36110 37160 ft 436 kts 231°
2026-05-05 19:19 48.18456 -0.39719 37380 ft 437 kts 231°
2026-05-05 19:19 48.16610 -0.43329 37629 ft 437 kts 232°
2026-05-05 19:19 48.14765 -0.46939 37932 ft 435 kts 231°
2026-05-05 19:19 48.12925 -0.50532 38194 ft 435 kts 232°
2026-05-05 19:20 48.11087 -0.54119 38456 ft 434 kts 231°
2026-05-05 19:20 48.09250 -0.57694 38733 ft 432 kts 232°
2026-05-05 19:20 48.07411 -0.61259 38874 ft 433 kts 232°
2026-05-05 19:20 48.05572 -0.64823 38912 ft 433 kts 231°
2026-05-05 19:21 48.01891 -0.71943 38921 ft 433 kts 231°
2026-05-05 19:21 47.98209 -0.79045 38919 ft 432 kts 231°
2026-05-05 19:22 47.94526 -0.86129 38921 ft 432 kts 231°
2026-05-05 19:22 47.90859 -0.93172 38920 ft 434 kts 232°
2026-05-05 19:23 47.87135 -1.00317 38911 ft 434 kts 232°
2026-05-05 19:23 47.83423 -1.07398 38908 ft 434 kts 231°
2026-05-05 19:24 47.79732 -1.14416 38908 ft 434 kts 231°
2026-05-05 19:24 47.76022 -1.21477 38911 ft 433 kts 231°
2026-05-05 19:25 47.72306 -1.28519 38912 ft 433 kts 231°
2026-05-05 19:25 47.68580 -1.35544 38906 ft 433 kts 231°
2026-05-05 19:26 47.64864 -1.42542 38905 ft 433 kts 231°
2026-05-05 19:26 47.61130 -1.49568 38901 ft 433 kts 231°
2026-05-05 19:27 47.57295 -1.56458 38899 ft 433 kts 228°
2026-05-05 19:27 47.53250 -1.63046 38899 ft 432 kts 227°
2026-05-05 19:28 47.49168 -1.69571 38907 ft 432 kts 227°
2026-05-05 19:28 47.45116 -1.76144 38899 ft 433 kts 228°
2026-05-05 19:29 47.41085 -1.82762 38899 ft 433 kts 228°
2026-05-05 19:29 47.37052 -1.89360 38909 ft 433 kts 228°
2026-05-05 19:30 47.32465 -1.95065 38914 ft 433 kts 211°
2026-05-05 19:30 47.27318 -1.99670 38912 ft 433 kts 211°
2026-05-05 19:31 47.22167 -2.04271 38915 ft 433 kts 211°
2026-05-05 19:31 47.17010 -2.08863 38921 ft 433 kts 212°
2026-05-05 19:32 47.11850 -2.13463 38909 ft 434 kts 212°
2026-05-05 19:32 47.06682 -2.18049 38918 ft 434 kts 212°
2026-05-05 19:33 47.01511 -2.22629 38923 ft 434 kts 212°
2026-05-05 19:33 46.96374 -2.27172 38926 ft 434 kts 212°
2026-05-05 19:34 46.91200 -2.31731 38928 ft 434 kts 212°
2026-05-05 19:35 46.83433 -2.38555 38932 ft 434 kts 212°
2026-05-05 19:35 46.78254 -2.43097 38935 ft 434 kts 212°
2026-05-05 19:36 46.73075 -2.47631 38942 ft 434 kts 212°
2026-05-05 19:36 46.67883 -2.52174 38935 ft 435 kts 211°
2026-05-05 19:37 46.62687 -2.56706 38939 ft 436 kts 211°
2026-05-05 19:37 46.57487 -2.61231 38949 ft 436 kts 211°
2026-05-05 19:38 46.52315 -2.65719 38945 ft 436 kts 212°
2026-05-05 19:38 46.47114 -2.70226 38949 ft 436 kts 211°
2026-05-05 19:39 46.41912 -2.74726 38948 ft 435 kts 212°
2026-05-05 19:39 46.36708 -2.79205 38948 ft 435 kts 211°
2026-05-05 19:40 46.31503 -2.83674 38943 ft 435 kts 212°
2026-05-05 19:40 46.26351 -2.88256 38954 ft 434 kts 218°
2026-05-05 19:41 46.21726 -2.93862 38949 ft 434 kts 221°
2026-05-05 19:41 46.17115 -2.99500 38956 ft 435 kts 221°
2026-05-05 19:42 46.12497 -3.05121 38951 ft 435 kts 221°
2026-05-05 19:42 46.07876 -3.10747 38955 ft 435 kts 221°
2026-05-05 19:43 46.03279 -3.16326 38957 ft 435 kts 221°
2026-05-05 19:43 45.98656 -3.21914 38954 ft 435 kts 222°
2026-05-05 19:44 45.94011 -3.27519 38948 ft 435 kts 221°
2026-05-05 19:44 45.90113 -3.32201 38956 ft 436 kts 222°
2026-05-05 19:45 45.85473 -3.37777 38962 ft 435 kts 221°
2026-05-05 19:45 45.80830 -3.43354 38966 ft 435 kts 221°
2026-05-05 19:46 45.76215 -3.48878 38965 ft 435 kts 222°
2026-05-05 19:46 45.71570 -3.54429 38964 ft 435 kts 221°
2026-05-05 19:47 45.66889 -3.60008 38967 ft 435 kts 221°
2026-05-05 19:47 45.62229 -3.65534 38962 ft 435 kts 221°
2026-05-05 19:48 45.57605 -3.71017 38975 ft 435 kts 221°
2026-05-05 19:48 45.52941 -3.76530 38967 ft 435 kts 221°
2026-05-05 19:49 45.48280 -3.82036 38971 ft 435 kts 220°
2026-05-05 19:49 45.43619 -3.87538 38985 ft 435 kts 221°
2026-05-05 19:50 45.38954 -3.93033 38975 ft 436 kts 221°
2026-05-05 19:50 45.34271 -3.98518 38972 ft 436 kts 220°
2026-05-05 19:51 45.29590 -4.03994 38974 ft 436 kts 221°
2026-05-05 19:51 45.24898 -4.09471 38987 ft 436 kts 221°
2026-05-05 19:52 45.20210 -4.14943 38984 ft 437 kts 221°
2026-05-05 19:52 45.15518 -4.20409 38989 ft 437 kts 221°
2026-05-05 19:53 45.10814 -4.25859 38990 ft 437 kts 221°
2026-05-05 19:53 45.06106 -4.31297 39001 ft 437 kts 221°
2026-05-05 19:54 45.01401 -4.36723 39004 ft 437 kts 221°
2026-05-05 19:54 44.96695 -4.42158 39007 ft 437 kts 221°
2026-05-05 19:55 44.91989 -4.47583 39008 ft 437 kts 221°
2026-05-05 19:55 44.87275 -4.52987 39007 ft 437 kts 220°
2026-05-05 19:56 44.82555 -4.58378 39015 ft 437 kts 220°
2026-05-05 19:56 44.77836 -4.63770 39014 ft 437 kts 220°
2026-05-05 19:57 44.73109 -4.69165 39015 ft 438 kts 221°
2026-05-05 19:57 44.68376 -4.74549 39022 ft 438 kts 220°
2026-05-05 19:58 44.63626 -4.79922 39025 ft 438 kts 220°
2026-05-05 19:58 44.58916 -4.85258 39027 ft 438 kts 220°
2026-05-05 19:59 44.54172 -4.90636 39034 ft 439 kts 220°
2026-05-05 19:59 44.49322 -4.95827 39029 ft 440 kts 214°
2026-05-05 20:00 44.44128 -5.00380 39035 ft 440 kts 214°
2026-05-05 20:00 44.38933 -5.04913 39044 ft 441 kts 214°
2026-05-05 20:01 44.33728 -5.09439 39051 ft 441 kts 214°
2026-05-05 20:01 44.28517 -5.13960 39045 ft 441 kts 214°
2026-05-05 20:02 44.23316 -5.18480 39053 ft 440 kts 214°
2026-05-05 20:02 44.18127 -5.22980 39058 ft 440 kts 214°
2026-05-05 20:03 44.12932 -5.27474 39057 ft 439 kts 214°
2026-05-05 20:03 44.07739 -5.31950 39054 ft 439 kts 214°
2026-05-05 20:04 44.02549 -5.36413 39050 ft 438 kts 214°
2026-05-05 20:04 43.97358 -5.40869 39054 ft 439 kts 214°
2026-05-05 20:05 43.92168 -5.45317 39060 ft 439 kts 214°
2026-05-05 20:05 43.86973 -5.49774 39060 ft 438 kts 214°
2026-05-05 20:06 43.81792 -5.54205 39069 ft 438 kts 214°
2026-05-05 20:06 43.76604 -5.58616 39072 ft 437 kts 214°
2026-05-05 20:07 43.71418 -5.63015 39073 ft 437 kts 214°
2026-05-05 20:07 43.66276 -5.67383 39074 ft 436 kts 214°
2026-05-05 20:08 43.61110 -5.71767 39080 ft 435 kts 214°
2026-05-05 20:08 43.55945 -5.76132 39082 ft 435 kts 214°
2026-05-05 20:09 43.50778 -5.80483 39074 ft 435 kts 214°
2026-05-05 20:09 43.45613 -5.84834 39074 ft 435 kts 214°
2026-05-05 20:10 43.40457 -5.89176 39084 ft 434 kts 214°
2026-05-05 20:10 43.35300 -5.93503 39086 ft 434 kts 214°
2026-05-05 20:11 43.30142 -5.97803 39093 ft 433 kts 214°
2026-05-05 20:11 43.24992 -6.02103 39086 ft 432 kts 214°
2026-05-05 20:12 43.19862 -6.06389 39092 ft 432 kts 214°
2026-05-05 20:12 43.14721 -6.10661 39085 ft 432 kts 214°
2026-05-05 20:13 43.09575 -6.14923 39086 ft 432 kts 214°
2026-05-05 20:13 43.04466 -6.19147 39084 ft 432 kts 215°
2026-05-05 20:14 42.99329 -6.23392 39092 ft 432 kts 215°
2026-05-05 20:14 42.94189 -6.27641 39090 ft 431 kts 215°
2026-05-05 20:15 42.89063 -6.31865 39088 ft 431 kts 215°
2026-05-05 20:15 42.83933 -6.36086 39064 ft 431 kts 215°
2026-05-05 20:16 42.78804 -6.40294 39089 ft 430 kts 215°
2026-05-05 20:16 42.73677 -6.44483 39086 ft 430 kts 214°
2026-05-05 20:17 42.68554 -6.48660 39079 ft 429 kts 215°
2026-05-05 20:17 42.63427 -6.52847 39076 ft 429 kts 215°
2026-05-05 20:18 42.58300 -6.57020 39082 ft 430 kts 215°
2026-05-05 20:18 42.53169 -6.61182 39079 ft 430 kts 215°
2026-05-05 20:19 42.48029 -6.65345 39083 ft 430 kts 215°
2026-05-05 20:19 42.42894 -6.69510 39083 ft 430 kts 215°
2026-05-05 20:20 42.37759 -6.73654 39076 ft 430 kts 215°
2026-05-05 20:20 42.32623 -6.77787 39076 ft 429 kts 215°
2026-05-05 20:21 42.27491 -6.81919 39081 ft 429 kts 215°
2026-05-05 20:21 42.22399 -6.86017 39071 ft 429 kts 215°
2026-05-05 20:22 42.17272 -6.90130 39071 ft 429 kts 215°
2026-05-05 20:22 42.12138 -6.94230 39075 ft 429 kts 215°
2026-05-05 20:23 42.07007 -6.98322 39080 ft 429 kts 215°
2026-05-05 20:23 42.01879 -7.02409 39084 ft 428 kts 215°
2026-05-05 20:24 41.96749 -7.06490 39063 ft 428 kts 215°
2026-05-05 20:24 41.91629 -7.10559 39073 ft 427 kts 215°
2026-05-05 20:25 41.86506 -7.14613 39075 ft 427 kts 214°
2026-05-05 20:25 41.81392 -7.18655 39076 ft 427 kts 214°
2026-05-05 20:26 41.76275 -7.22691 39071 ft 426 kts 215°
2026-05-05 20:26 41.71163 -7.26697 39065 ft 425 kts 214°
2026-05-05 20:27 41.66051 -7.30663 39085 ft 424 kts 214°
2026-05-05 20:27 41.60950 -7.34619 39082 ft 423 kts 214°
2026-05-05 20:28 41.55861 -7.38567 39073 ft 423 kts 214°
2026-05-05 20:28 41.50773 -7.42503 39069 ft 422 kts 214°
2026-05-05 20:29 41.45727 -7.46386 39080 ft 421 kts 214°
2026-05-05 20:29 41.40656 -7.50283 39081 ft 420 kts 214°
2026-05-05 20:30 41.35600 -7.54177 39079 ft 420 kts 214°
2026-05-05 20:30 41.30537 -7.58064 39063 ft 419 kts 214°
2026-05-05 20:31 41.25483 -7.61939 39077 ft 419 kts 214°
2026-05-05 20:31 41.20429 -7.65804 39078 ft 419 kts 214°
2026-05-05 20:32 41.15377 -7.69663 39083 ft 419 kts 214°
2026-05-05 20:32 41.11170 -7.72867 39085 ft 419 kts 214°
2026-05-05 20:33 41.06111 -7.76712 39064 ft 419 kts 214°
2026-05-05 20:33 41.01059 -7.80550 39082 ft 419 kts 214°
2026-05-05 20:34 40.96008 -7.84380 39096 ft 418 kts 214°
2026-05-05 20:34 40.90960 -7.88203 39093 ft 418 kts 214°
2026-05-05 20:35 40.85916 -7.92012 39082 ft 417 kts 214°
2026-05-05 20:35 40.80883 -7.95809 39090 ft 416 kts 214°
2026-05-05 20:36 40.75885 -7.99567 39097 ft 416 kts 214°
2026-05-05 20:36 40.70858 -8.03342 39096 ft 416 kts 214°
2026-05-05 20:37 40.65833 -8.07114 39097 ft 416 kts 214°
2026-05-05 20:37 40.60811 -8.10882 39089 ft 415 kts 214°
2026-05-05 20:38 40.55798 -8.14627 39086 ft 409 kts 214°
2026-05-05 20:38 40.53362 -8.16435 39065 ft 395 kts 214°
2026-05-05 20:38 40.51007 -8.18177 39041 ft 384 kts 215°
2026-05-05 20:39 40.46372 -8.21636 38992 ft 389 kts 215°
2026-05-05 20:39 40.44017 -8.23401 38738 ft 388 kts 215°
2026-05-05 20:39 40.41687 -8.25137 38389 ft 382 kts 215°
2026-05-05 20:39 40.39391 -8.26838 38124 ft 375 kts 215°
2026-05-05 20:40 40.37138 -8.28505 37832 ft 368 kts 215°
2026-05-05 20:40 40.34922 -8.30145 37558 ft 364 kts 215°
2026-05-05 20:40 40.32730 -8.31770 37291 ft 360 kts 216°
2026-05-05 20:40 40.30563 -8.33380 37023 ft 357 kts 216°
2026-05-05 20:41 40.28411 -8.34976 36750 ft 354 kts 215°
2026-05-05 20:41 40.26278 -8.36554 36485 ft 351 kts 215°
2026-05-05 20:41 40.24163 -8.38119 36235 ft 348 kts 216°
2026-05-05 20:41 40.22061 -8.39671 35987 ft 345 kts 216°
2026-05-05 20:42 40.19976 -8.41208 35732 ft 342 kts 216°
2026-05-05 20:42 40.17898 -8.42740 35486 ft 348 kts 216°
2026-05-05 20:42 40.15737 -8.44349 35232 ft 367 kts 216°
2026-05-05 20:42 40.13463 -8.46043 34987 ft 385 kts 215°
2026-05-05 20:43 40.11092 -8.47796 34687 ft 397 kts 215°
2026-05-05 20:43 40.08666 -8.49577 34379 ft 402 kts 215°
2026-05-05 20:43 40.06223 -8.51362 34058 ft 403 kts 214°
2026-05-05 20:43 40.03639 -8.52834 33705 ft 412 kts 201°
2026-05-05 20:44 40.00768 -8.53408 33355 ft 425 kts 186°
2026-05-05 20:44 39.97785 -8.53220 32985 ft 431 kts 182°
2026-05-05 20:44 39.94827 -8.52967 32617 ft 433 kts 182°
2026-05-05 20:44 39.91782 -8.52699 32217 ft 433 kts 182°
2026-05-05 20:45 39.85793 -8.52179 31502 ft 435 kts 182°
2026-05-05 20:45 39.82766 -8.51927 31150 ft 436 kts 182°
2026-05-05 20:45 39.79734 -8.51683 30803 ft 437 kts 183°
2026-05-05 20:46 39.76731 -8.51915 30457 ft 428 kts 196°
2026-05-05 20:46 39.73921 -8.53025 30110 ft 419 kts 209°
2026-05-05 20:46 39.71389 -8.54847 29693 ft 416 kts 216°
2026-05-05 20:46 39.68911 -8.56808 29295 ft 417 kts 216°
2026-05-05 20:47 39.66428 -8.58770 28906 ft 419 kts 216°
2026-05-05 20:47 39.63934 -8.60737 28521 ft 420 kts 216°
2026-05-05 20:47 39.61429 -8.62705 28138 ft 422 kts 216°
2026-05-05 20:47 39.58919 -8.64674 27769 ft 423 kts 216°
2026-05-05 20:48 39.56393 -8.66656 27398 ft 425 kts 216°
2026-05-05 20:48 39.53863 -8.68643 27033 ft 424 kts 216°
2026-05-05 20:48 39.51387 -8.70577 26653 ft 404 kts 216°
2026-05-05 20:48 39.49052 -8.72388 26291 ft 380 kts 215°
2026-05-05 20:49 39.46849 -8.74094 25937 ft 361 kts 215°
2026-05-05 20:49 39.44717 -8.75757 25590 ft 355 kts 215°
2026-05-05 20:49 39.42624 -8.77401 25250 ft 350 kts 216°
2026-05-05 20:49 39.40582 -8.79087 24911 ft 345 kts 221°
2026-05-05 20:50 39.38805 -8.81117 24668 ft 340 kts 230°
2026-05-05 20:50 39.37251 -8.83405 24433 ft 338 kts 232°
2026-05-05 20:50 39.35704 -8.85690 24197 ft 338 kts 232°
2026-05-05 20:50 39.34153 -8.87967 23964 ft 337 kts 232°
2026-05-05 20:51 39.32604 -8.90235 23727 ft 336 kts 232°
2026-05-05 20:51 39.31059 -8.92494 23457 ft 336 kts 232°
2026-05-05 20:51 39.29516 -8.94753 23196 ft 334 kts 232°
2026-05-05 20:51 39.27980 -8.97002 22929 ft 333 kts 232°
2026-05-05 20:52 39.26448 -8.99242 22657 ft 332 kts 232°
2026-05-05 20:52 39.24920 -9.01476 22388 ft 331 kts 232°
2026-05-05 20:52 39.23251 -9.03522 22127 ft 335 kts 218°
2026-05-05 20:52 39.21158 -9.04873 21837 ft 339 kts 206°
2026-05-05 20:53 39.19008 -9.06018 21570 ft 338 kts 206°
2026-05-05 20:53 39.16827 -9.07158 21307 ft 338 kts 206°
2026-05-05 20:53 39.14651 -9.08287 21075 ft 337 kts 206°
2026-05-05 20:53 39.12474 -9.09414 20812 ft 336 kts 206°
2026-05-05 20:54 39.10306 -9.10538 20557 ft 336 kts 206°
2026-05-05 20:54 39.08140 -9.11662 20310 ft 335 kts 206°
2026-05-05 20:54 39.05985 -9.12784 20065 ft 334 kts 206°
2026-05-05 20:54 39.03846 -9.13898 19751 ft 330 kts 206°
2026-05-05 20:55 39.01728 -9.15007 19345 ft 328 kts 206°
2026-05-05 20:55 38.99615 -9.16116 18929 ft 328 kts 206°
2026-05-05 20:55 38.97497 -9.17225 18504 ft 328 kts 206°
2026-05-05 20:55 38.95384 -9.18331 18063 ft 328 kts 206°
2026-05-05 20:56 38.93277 -9.19432 17644 ft 326 kts 206°
2026-05-05 20:56 38.91177 -9.20528 17237 ft 325 kts 206°
2026-05-05 20:56 38.89083 -9.21617 16833 ft 324 kts 206°
2026-05-05 20:56 38.86998 -9.22698 16433 ft 323 kts 206°
2026-05-05 20:57 38.84913 -9.23777 16031 ft 323 kts 206°
2026-05-05 20:57 38.82833 -9.24855 15647 ft 322 kts 206°
2026-05-05 20:57 38.80757 -9.25935 15243 ft 322 kts 206°
2026-05-05 20:57 38.78690 -9.27012 14933 ft 319 kts 206°
2026-05-05 20:58 38.76626 -9.28084 14546 ft 319 kts 205°
2026-05-05 20:58 38.74567 -9.29151 14147 ft 319 kts 205°
2026-05-05 20:58 38.72529 -9.30207 13913 ft 314 kts 205°
2026-05-05 20:58 38.70510 -9.31252 13502 ft 313 kts 205°
2026-05-05 20:59 38.68491 -9.32296 13123 ft 312 kts 205°
2026-05-05 20:59 38.66486 -9.33332 12743 ft 310 kts 205°
2026-05-05 20:59 38.64517 -9.34345 12353 ft 309 kts 205°
2026-05-05 20:59 38.62528 -9.35370 11979 ft 307 kts 205°
2026-05-05 21:00 38.60556 -9.36385 11591 ft 304 kts 205°
2026-05-05 21:00 38.58603 -9.37387 10923 ft 303 kts 205°
2026-05-05 21:00 38.56650 -9.38387 10608 ft 300 kts 205°
2026-05-05 21:00 38.54728 -9.39371 10033 ft 296 kts 205°
2026-05-05 21:01 38.52844 -9.40338 9549 ft 288 kts 205°
2026-05-05 21:01 38.50985 -9.41295 9132 ft 288 kts 204°
2026-05-05 21:01 38.49134 -9.42249 8708 ft 287 kts 205°
2026-05-05 21:01 38.47283 -9.43201 8295 ft 286 kts 205°
2026-05-05 21:02 38.45473 -9.44131 8152 ft 275 kts 204°
2026-05-05 21:02 38.43689 -9.44847 8027 ft 265 kts 188°
2026-05-05 21:02 38.41863 -9.44614 8015 ft 277 kts 162°
2026-05-05 21:02 38.40170 -9.43319 8018 ft 290 kts 133°
2026-05-05 21:03 38.39119 -9.41134 7943 ft 294 kts 105°
2026-05-05 21:03 38.38986 -9.38610 7646 ft 283 kts 75°
2026-05-05 21:03 38.39745 -9.36372 7371 ft 273 kts 48°
2026-05-05 21:03 38.41150 -9.34818 7093 ft 265 kts 25°
2026-05-05 21:04 38.42803 -9.33801 6820 ft 263 kts 22°
2026-05-05 21:04 38.44441 -9.32802 6552 ft 259 kts 24°
2026-05-05 21:04 38.46042 -9.31818 6279 ft 251 kts 24°
2026-05-05 21:04 38.47591 -9.30863 5992 ft 244 kts 24°
2026-05-05 21:05 38.49098 -9.29933 5708 ft 238 kts 24°
2026-05-05 21:05 38.50570 -9.29025 5429 ft 232 kts 24°
2026-05-05 21:05 38.52008 -9.28139 5153 ft 227 kts 23°
2026-05-05 21:05 38.53402 -9.27256 4941 ft 220 kts 28°
2026-05-05 21:06 38.54682 -9.26229 4742 ft 214 kts 26°
2026-05-05 21:06 38.55997 -9.25409 4569 ft 203 kts 21°
2026-05-05 21:06 38.57229 -9.24735 4426 ft 185 kts 20°
2026-05-05 21:06 38.58386 -9.24119 4224 ft 177 kts 20°
2026-05-05 21:07 38.59514 -9.23520 3994 ft 175 kts 20°
2026-05-05 21:07 38.60629 -9.22927 3769 ft 173 kts 20°
2026-05-05 21:07 38.61700 -9.22357 3562 ft 158 kts 20°
2026-05-05 21:07 38.62667 -9.21842 3352 ft 144 kts 19°
2026-05-05 21:08 38.63540 -9.21377 3170 ft 131 kts 19°
2026-05-05 21:08 38.64368 -9.20937 2987 ft 128 kts 19°
2026-05-05 21:08 38.65193 -9.20499 2835 ft 129 kts 19°
2026-05-05 21:08 38.66003 -9.20069 2672 ft 129 kts 19°
2026-05-05 21:09 38.66832 -9.19624 2562 ft 125 kts 19°
2026-05-05 21:09 38.67612 -9.19187 2390 ft 127 kts 19°
2026-05-05 21:09 38.68425 -9.18732 2194 ft 123 kts 18°
2026-05-05 21:09 38.69197 -9.18323 2015 ft 122 kts 18°
2026-05-05 21:10 38.70015 -9.17899 1842 ft 125 kts 18°
2026-05-05 21:10 38.70805 -9.17477 1646 ft 125 kts 18°
2026-05-05 21:10 38.71605 -9.17049 1423 ft 124 kts 19°
2026-05-05 21:10 38.72387 -9.16621 1353 ft 121 kts 19°
2026-05-05 21:11 38.73198 -9.16222 1112 ft 128 kts 18°
2026-05-05 21:11 38.74015 -9.15774 913 ft 127 kts 19°
2026-05-05 21:11 38.74857 -9.15342 696 ft 130 kts 20°
2026-05-05 21:11 38.75688 -9.14879 635 ft 129 kts 16°
2026-05-05 21:12 38.76508 -9.14451 479 ft 127 kts 17°
2026-05-05 21:12 38.77306 -9.14031 380 ft 119 kts 17°
2026-05-05 21:12 38.77934 -9.13697 368 ft 56 kts 23°
2026-05-05 21:12 38.78178 -9.13564 367 ft 22 kts 34°
2026-05-05 21:13 38.78288 -9.13465 367 ft 18 kts 43°
2026-05-05 21:13 38.78365 -9.13356 366 ft 15 kts 60°
2026-05-05 21:13 38.78353 -9.13270 362 ft 8 kts 145°
2026-05-05 21:13 38.78330 -9.13266 359 ft 0 kts 181°
2026-05-05 21:14 38.78321 -9.13268 361 ft 5 kts 191°
2026-05-05 21:14 38.78267 -9.13293 366 ft 11 kts 199°
2026-05-05 21:14 38.78195 -9.13329 360 ft 11 kts 202°
2026-05-05 21:15 38.78124 -9.13367 364 ft 11 kts 201°
2026-05-05 21:15 38.78063 -9.13400 360 ft 9 kts 203°
2026-05-05 21:15 38.78002 -9.13410 356 ft 10 kts 171°
2026-05-05 21:15 38.77919 -9.13388 356 ft 14 kts 168°
2026-05-05 21:16 38.77812 -9.13360 347 ft 16 kts 168°
2026-05-05 21:16 38.77723 -9.13336 336 ft 13 kts 167°
2026-05-05 21:16 38.77631 -9.13319 334 ft 12 kts 178°
2026-05-05 21:16 38.77551 -9.13310 338 ft 11 kts 170°
2026-05-05 21:17 38.77475 -9.13291 336 ft 11 kts 169°
2026-05-05 21:17 38.77404 -9.13273 337 ft 10 kts 169°
2026-05-05 21:17 38.77338 -9.13259 337 ft 9 kts 171°
2026-05-05 21:17 38.77275 -9.13246 337 ft 9 kts 167°
2026-05-05 21:18 38.77247 -9.13231 335 ft 3 kts 131°
2026-05-05 21:18 38.77247 -9.13196 336 ft 5 kts 82°
2026-05-05 21:18 38.77251 -9.13172 334 ft 2 kts 79°
2026-05-05 21:18 38.77253 -9.13157 337 ft 1 kts 78°
2026-05-05 21:19 38.77255 -9.13150 337 ft 0 kts 77°
2026-05-05 21:19 38.77255 -9.13149 337 ft 0 kts 77°